Location: East Side
(41.1006°N, 80.6367°W)
Time: 18:45:57
(UTC+00:00)

Daily predictions for brighter satellites

Satellite Brightness Start Highest point End
(mag) Time Altitude Azimuth Time Altitude Azimuth Time Altitude Azimuth
ATLAS 5 CENTAUR R/B 4.4 23:07:37 10° NW 23:13:28 79° NE 23:41:04 10° SE
BREEZE-M DEB (TANK) 4.3 23:21:34 10° NW 23:23:26 19° NNE 23:26:15 10° ENE
FengYun 1-2 T 4.3 23:18:57 10° SSE 23:24:35 74° ENE 23:30:13 10° N
Cosmos 1933 3.5 23:22:53 10° N 23:26:57 79° W 23:30:57 10° S
Cosmos 2061 Rocket 4.5 23:22:02 10° SSE 23:27:56 40° E 23:33:49 10° NNE
STARLINK-80 3.6 23:25:56 10° WSW 23:29:44 74° NW 23:33:34 10° NE
Cosmos 1151 Rocket 4.3 23:26:43 10° NNW 23:30:58 48° W 23:35:10 10° SSW
Meteor 2-3 Rocket 3.8 23:27:26 10° S 23:33:00 90° W 23:38:40 10° N
Cosmos 2082 Rocket 2.3 23:27:43 10° NNW 23:33:16 56° ENE 23:38:49 10° SE
CZ-4 R/B 4.4 23:33:47 10° SSE 23:37:53 74° ENE 23:42:00 10° N
COSMO-SKYMED 1 2.6 23:33:43 10° NNE 23:38:04 86° WNW 23:42:25 10° SSW
Cosmos 1805 Rocket 4.0 23:34:09 10° SSE 23:38:15 40° E 23:42:21 10° NNE
Cosmos 1459 Rocket 3.9 23:34:55 10° S 23:40:55 71° E 23:46:57 10° NNE
Cosmos 1782 2.9 23:38:12 10° N 23:42:10 53° E 23:46:04 10° SSE
ATLAS 5 CENTAUR R/B 3.3 23:38:20 10° NW 23:44:10 55° WSW 23:50:45 10° SSE
USA 116 3.8 23:40:46 10° NNE 23:44:23 56° ESE 23:48:28 10° S
Cosmos 1515 Rocket 4.4 23:40:32 10° NNW 23:44:49 55° W 23:49:02 10° S
Cosmos 1500 Rocket 3.9 23:41:26 10° SSW 23:45:52 72° W 23:50:20 10° N
Sich 1 3.6 23:42:15 10° SSE 23:46:09 34° E 23:50:02 10° NNE
Cosmos 1725 Rocket 4.3 23:40:45 10° SSE 23:46:28 42° E 23:52:13 10° NNE
Cosmos 1862 4.1 23:43:34 10° SSE 23:47:01 29° E 23:50:29 10° NNE
STARLINK-61 4.2 23:45:07 10° SSW 23:48:42 36° SE 23:51:27 15° ENE
SL-4 R/B 3.4 23:44:30 10° NW 23:48:42 30° NNE 23:51:51 15° ENE
Cosmos 1707 Rocket 4.4 23:45:13 10° NNE 23:49:05 29° ENE 23:52:56 10° SE
ADEOS Rocket 3.7 23:42:28 10° NNE 23:49:58 52° E 23:57:28 10° S
Abrixas rocket 2.9 23:50:01 10° NW 23:52:43 32° NNE 23:54:16 19° ENE
Cosmos 1833 Rocket 3.2 23:47:18 10° NNW 23:52:55 66° WSW 23:58:28 10° S
Cosmos 1802 Rocket 4.0 23:46:45 10° S 23:52:56 72° E 23:59:15 10° NNE
STARLINK-33 3.8 23:53:08 10° SSW 23:56:10 35° SE 23:57:51 20° E
